Location: Mascot Post Office (historical)
(40.2645°N, 99.5462°W)
Time: 17:29:30
(UTC+00:00)

Cosmos 1437 Rocket - Pass Details

Date: 14 July 2020
Orbit: 506 x 562 km, 81.2° (Epoch: 05 August)

Event Time Altitude Azimuth Distance (km) Brightness Sun altitude
Rises 08:28:57 0° 349° (N) 2,727 7.2 -23.5°
Reaches altitude 10° 08:31:09 10° 348° (NNW) 1,821 6.1 -23.3°
Enters shadow 08:34:51 73° 317° (NW) 568 2.8 -23.0°
